SCP
0 0 0 0 0 0 0 0 0 0 0 0 1 1 1 1 1 0 0 1 1 1 1 1 1 1 1 1 1 1 1 1 1 1 1 1 1 1 1 0 0 0 0 0 0 0 0 0 0
0 0 0 0 0 0 0 0 0 0 0 0 1 1 1 2 1 1 0 1 1 1 1 1 1 1 1 1 1 1 1 1 1 1 1 1 1 1 1 0 0 0 0 0 0 0 0 0 0
0 0 0 0 0 0 0 0 0 0 0 0 0 1 1 2 1 1 0 1 1 2 1 1 1 1 1 1 1 1 1 1 1 1 1 1 1 1 1 0 0 0 0 0 0 0 0 0 0
0 0 0 0 0 0 0 0 0 0 0 0 0 1 1 1 1 1 1 1 1 2 1 1 1 1 1 1 1 1 1 1 1 1 1 1 1 1 1 1 0 0 0 0 0 0 0 0 0
0 0 0 0 0 0 0 1 1 1 1 1 1 1 1 1 1 1 1 1 1 1 1 1 2 2 2 2 1 1 1 1 1 1 1 1 1 1 1 1 1 0 0 0 0 0 0 0 0
0 0 0 0 0 0 0 1 2 2 2 2 1 1 1 1 1 1 1 1 1 1 1 1 1 1 2 2 1 1 1 1 1 1 1 1 1 1 1 1 1 0 0 0 0 1 1 1 1
0 0 0 0 0 0 1 1 2 2 3 2 1 1 1 1 1 1 1 1 1 1 1 1 1 1 1 1 1 1 1 1 1 1 1 1 1 1 1 1 1 0 0 1 1 1 1 1 1
0 0 0 0 0 1 1 1 2 2 3 2 2 2 2 2 2 1 1 1 1 1 1 1 1 1 1 1 1 1 1 1 1 1 1 1 1 1 1 1 1 1 1 1 1 1 1 1 1
0 0 0 0 0 1 1 1 2 2 3 3 3 4 4 3 3 2 2 2 2 1 1 1 1 1 1 1 1 1 1 1 1 1 1 1 1 1 1 1 1 1 1 1 1 1 1 1 1
0 0 0 0 1 1 2 2 2 2 3 4 4 5 5 4 3 3 3 2 2 2 1 1 1 1 1 1 1 1 1 2 1 1 1 1 1 1 1 1 1 1 1 1 1 1 1 1 1
0 0 0 1 1 2 3 3 3 3 3 3 4 5 5 4 4 3 3 3 2 2 2 1 1 1 1 1 1 1 1 2 2 2 1 1 1 1 1 1 1 1 1 1 1 1 1 1 2
0 1 1 2 3 4 4 5 5 4 4 4 4 4 4 4 4 3 3 3 3 2 2 2 2 2 1 1 1 1 1 1 2 2 2 2 1 1 1 2 2 1 1 1 1 1 1 1 2
0 1 1 2 4 5 5 6 6 5 5 4 4 4 4 4 3 3 3 3 3 2 2 2 2 1 1 1 1 1 1 1 1 2 2 2 2 2 1 1 1 1 1 1 1 1 1 1 1
0 1 1 2 4 5 5 5 5 5 5 5 5 4 3 3 3 3 3 3 2 2 1 1 1 1 1 1 1 1 1 1 1 1 1 1 1 1 1 1 1 1 1 1 1 1 1 1 1
0 0 1 1 2 3 4 4 4 4 4 5 5 4 3 3 3 2 2 2 2 1 1 1 1 1 1 1 0 1 1 1 1 1 1 1 1 1 1 1 1 1 1 1 1 1 1 1 1
0 0 0 1 1 2 2 3 3 3 3 4 4 3 2 2 2 2 1 1 1 1 1 1 0 0 0 0 0 0 0 0 0 0 0 0 1 1 1 1 1 1 1 1 1 1 1 1 1
0 0 0 0 1 1 2 2 2 2 2 3 2 2 2 2 1 1 1 1 1 1 0 0 0 0 0 0 0 0 0 0 0 0 0 0 0 0 0 0 0 0 1 0 0 1 1 1 1
0 0 0 0 1 1 1 1 2 2 2 2 2 2 2 1 1 1 1 1 0 0 0 0 0 0 0 0 0 0 0 0 0 0 0 0 0 0 0 0 0 0 0 0 0 0 0 0 0
0 0 0 0 1 1 1 1 1 1 1 1 1 1 1 1 1 0 0 0 0 0 0 0 0 0 0 0 0 0 0 0 0 0 0 0 0 0 0 0 0 0 0 0 0 0 0 0 0
0 0 0 0 0 0 1 1 1 1 1 1 1 1 1 1 0 0 0 0 0 0 0 0 0 0 0 0 0 0 0 0 0 0 0 0 0 0 0 0 0 0 0 0 0 0 0 0 0
0 0 0 0 0 0 0 0 0 0 1 1 0 0 0 0 0 0 0 0 0 0 0 0 0 0 0 0 0 0 0 0 0 0 0 0 0 0 0 0 0 0 0 0 0 0 0 0 0
0 0 0 0 0 0 0 0 0 0 0 0 0 0 0 0 0 0 0 0 0 0 0 0 0 0 0 0 0 0 0 0 0 0 0 0 0 0 0 0 0 0 0 0 0 0 0 0 0
0 0 0 0 0 0 0 0 0 0 0 0 0 0 0 0 0 0 0 0 0 0 0 0 0 0 0 0 0 0 0 0 0 0 0 0 0 0 0 0 0 0 0 0 0 0 0 0 0
0 0 0 0 0 0 0 0 0 0 0 0 0 0 0 0 0 0 0 0 0 0 0 0 0 0 0 0 0 0 0 0 0 0 0 0 0 0 0 0 0 0 0 0 0 0 0 0 0
0 0 0 0 0 0 0 0 0 0 0 0 0 0 0 0 0 0 0 0 0 0 0 0 0 0 0 0 0 0 0 0 0 0 0 0 0 0 0 0 0 0 0 0 0 0 0 0 0
0 0 0 0 0 0 0 0 0 0 0 0 0 0 0 0 0 0 0 0 0 0 0 0 0 0 0 0 0 0 0 0 0 0 0 0 0 0 0 0 0 0 0 0 0 0 0 0 0
0 0 0 0 0 0 0 0 0 0 0 0 0 0 0 0 0 0 0 0 0 0 0 0 0 0 0 0 0 0 0 0 0 0 0 0 0 0 0 0 0 0 0 0 0 0 0 0 0
0 0 0 0 0 0 0 0 0 0 0 0 0 0 0 0 0 0 0 0 0 0 0 0 0 0 0 0 0 0 0 0 0 0 0 0 0 0 0 0 0 0 0 0 0 0 0 0 0
0 0 0 0 0 0 0 0 0 0 0 0 0 0 0 0 0 0 0 0 0 0 0 0 0 0 0 0 0 0 0 0 0 0 0 0 0 0 0 0 0 0 0 0 0 0 0 0 0
0 0 0 0 0 0 0 0 0 0 0 0 0 0 0 0 0 0 0 0 0 0 0 0 0 0 0 0 0 0 0 0 0 0 0 0 0 0 0 0 0 0 0 0 0 0 0 0 0
Wind_Speed
14 8 3 2 2 1 5 6 4 3 1 2 5 7 7 5 2 3 3 9 12 11 8 10 12 13 14 14 15 15 14 14 14 13 13 13 13 12 12 12 11 11 10 10 9 8 8 8 8
8 5 2 3 2 2 5 4 3 2 2 3 5 6 7 6 5 7 5 9 13 11 7 9 12 12 13 13 13 13 13 13 13 12 12 12 12 11 11 11 10 10 10 9 9 8 8 8 8
7 2 3 3 1 3 5 3 2 1 2 2 4 5 5 4 5 5 7 13 13 9 7 9 14 13 12 12 12 12 12 12 11 11 11 11 10 10 10 9 9 9 9 8 8 8 8 8 8
4 2 3 2 4 6 7 7 4 0 3 5 4 5 5 4 3 7 14 14 13 9 7 8 14 13 12 11 11 11 11 11 10 10 10 10 9 9 9 8 8 8 8 8 8 7 8 8 8
2 4 3 2 6 7 6 7 2 2 3 5 5 5 5 6 9 14 14 14 13 9 6 7 13 12 11 11 10 10 10 10 10 9 9 9 9 9 9 9 8 8 8 8 8 8 8 8 8
3 4 2 3 6 6 4 6 4 6 5 5 5 4 4 5 9 11 12 11 10 9 6 6 11 11 10 10 9 9 9 9 9 9 9 9 9 9 9 9 9 9 9 9 9 9 8 8 8
4 4 2 3 5 4 5 5 6 5 5 5 3 5 3 5 7 9 10 10 9 7 6 4 4 6 8 8 8 8 8 8 8 8 8 8 9 9 9 9 9 10 10 10 10 10 10 9 9
4 4 1 3 3 3 4 4 5 6 4 4 4 5 4 6 9 10 10 9 8 6 5 4 3 3 2 2 5 6 6 6 6 7 7 8 8 8 9 8 9 10 10 11 11 11 11 11 11
4 4 2 4 2 2 3 4 5 6 6 6 6 4 8 14 12 10 9 8 6 6 4 3 3 3 2 1 3 4 5 5 5 5 7 7 3 3 4 7 9 11 11 11 12 12 12 12 11
4 3 7 6 3 2 2 5 5 6 8 7 8 12 14 12 10 9 9 7 6 5 3 3 2 2 1 1 0 1 1 1 2 2 3 2 2 3 5 6 10 11 11 12 12 12 12 10 5
6 7 6 5 4 3 3 5 6 5 7 5 6 11 11 11 8 8 7 6 5 4 4 3 2 2 2 1 2 1 1 1 2 3 3 2 2 2 3 2 4 5 7 5 6 6 5 5 4
5 5 4 3 1 3 5 6 7 9 7 6 7 9 10 10 8 6 7 6 6 6 5 5 4 4 3 2 1 2 2 1 1 2 2 2 1 2 2 2 2 2 2 3 3 3 4 5 6
4 2 3 5 9 10 13 10 9 8 8 9 10 10 9 8 7 7 7 6 7 7 6 5 4 4 3 3 2 3 2 2 2 2 2 1 1 1 1 1 1 2 2 2 3 4 4 5 6
2 4 5 6 8 6 11 8 6 5 6 9 10 8 7 7 7 6 6 6 6 5 5 4 5 4 4 4 3 2 2 2 2 2 3 2 1 1 1 1 2 2 2 2 3 4 4 4 4
3 5 5 5 4 3 7 8 4 4 6 8 8 8 7 6 5 6 5 5 5 4 4 3 4 3 4 4 3 2 2 2 2 3 4 3 2 2 1 2 2 2 2 3 2 3 3 4 4
3 4 3 2 2 2 6 4 2 2 5 7 7 7 7 5 4 4 5 5 4 4 3 3 4 4 4 3 3 2 2 3 2 2 3 4 3 2 2 2 2 3 2 2 2 2 3 3 4
4 3 2 1 2 2 4 5 4 2 3 5 5 6 6 5 4 4 5 5 5 4 4 3 3 3 3 3 3 2 2 3 2 2 3 3 4 3 1 1 2 3 2 2 3 2 2 3 4
3 3 2 2 1 3 3 3 4 2 2 3 3 4 5 6 6 5 5 4 4 4 3 3 2 2 2 2 2 2 3 2 2 2 3 4 3 3 2 2 3 2 2 2 2 3 3 3 4
4 4 3 1 1 3 4 5 4 3 3 3 3 4 5 5 4 5 5 5 4 4 3 3 3 2 1 1 1 1 2 2 2 3 4 4 4 4 3 2 3 2 2 2 3 2 3 2 2
4 4 3 3 2 3 2 2 3 4 4 4 4 4 5 4 4 5 5 5 6 5 5 4 4 3 2 1 1 1 0 1 2 3 3 4 4 4 3 3 3 2 2 3 2 1 2 2 2
2 4 5 5 3 4 2 1 1 1 2 3 5 4 4 7 7 7 7 7 6 7 6 5 4 4 2 1 1 1 2 2 2 3 3 4 5 4 4 4 3 2 1 2 2 2 1 2 2
0 1 6 7 5 3 4 1 2 1 3 4 5 5 6 6 6 6 7 7 7 7 5 5 5 4 3 2 1 1 1 2 3 2 3 5 4 4 4 4 3 3 2 2 2 1 1 1 2
4 7 8 6 5 3 4 2 6 2 2 4 5 6 6 6 7 7 7 7 6 5 5 5 4 4 3 3 2 2 2 3 2 3 4 4 4 4 4 4 3 3 2 2 2 2 1 1 2
8 7 7 6 5 3 2 1 5 3 5 4 4 6 6 6 6 6 5 4 3 3 3 4 4 4 3 3 3 3 4 4 4 4 4 4 3 3 4 4 3 3 2 3 3 2 2 2 2
5 6 5 5 4 3 1 1 8 6 6 6 6 6 6 5 5 5 5 5 5 4 4 4 4 3 3 3 4 4 5 5 5 5 4 4 3 3 5 4 3 3 3 4 3 2 3 3 3
3 7 6 4 3 3 2 4 8 5 5 5 6 5 4 4 5 6 6 6 5 5 5 4 4 4 4 4 4 4 5 4 4 5 4 4 4 5 5 5 5 5 5 4 3 3 3 3 3
6 3 5 7 2 1 4 6 8 3 3 4 4 4 5 4 5 5 5 5 5 5 5 5 5 4 5 5 5 5 5 5 5 5 5 4 5 5 6 5 5 5 5 5 4 3 4 4 4
5 8 6 6 4 1 4 4 5 6 6 5 5 6 6 4 4 5 5 4 3 3 3 3 4 5 5 5 5 4 5 5 5 4 5 6 6 5 6 7 6 6 6 5 5 5 5 5 5
3 5 6 5 5 5 3 8 8 8 8 8 8 7 6 7 6 5 4 2 2 2 3 3 4 4 5 5 5 5 5 5 4 5 6 6 6 6 6 7 7 7 7 6 5 6 6 6 6
1 5 7 5 3 4 4 10 6 7 7 7 7 6 5 6 4 3 3 2 2 3 4 4 5 5 6 5 4 5 5 5 5 6 6 6 6 7 7 7 7 8 8 7 7 8 7 7 8
Wind_Direction
136 129 119 85 57 12 270 256 249 291 358 33 70 81 86 72 93 130 105 127 129 135 141 144 143 140 137 134 132 131 131 132 133 134 137 141 145 150 154 158 161 163 162 158 155 151 146 143 140
133 134 81 70 70 323 278 257 273 259 167 134 82 82 77 72 82 107 122 133 133 134 133 142 143 142 140 138 137 136 136 137 139 142 145 149 152 156 161 164 167 168 168 166 164 161 157 153 151
147 128 95 85 166 233 270 271 280 5 47 52 72 61 75 96 123 128 139 136 129 128 129 149 147 147 146 145 143 142 143 144 147 150 154 157 161 165 169 173 176 177 178 177 175 174 169 164 162
138 73 67 72 254 244 251 272 269 141 30 33 78 61 56 37 116 129 134 134 128 123 128 150 149 150 151 151 151 150 151 153 156 160 165 169 172 177 181 185 189 191 191 192 191 189 183 179 176
79 89 68 315 263 256 263 277 233 100 62 44 67 77 41 22 92 120 131 135 132 126 127 146 149 151 153 156 158 159 161 164 167 172 177 182 187 191 195 198 203 207 211 212 208 204 198 194 191
77 78 86 281 278 284 323 356 45 74 77 58 63 77 55 82 106 121 128 129 130 128 121 134 149 151 155 161 166 168 172 175 180 187 192 197 203 207 210 212 215 219 224 229 225 218 211 206 204
120 122 188 251 286 316 354 6 41 48 64 43 63 88 90 103 110 117 118 119 120 117 110 108 130 149 160 166 172 179 183 188 194 201 207 213 218 221 224 225 227 230 232 234 232 229 223 217 212
146 120 247 268 278 314 338 22 49 48 59 33 51 118 144 130 116 111 111 112 113 106 101 98 95 96 113 154 182 188 196 203 210 217 222 228 233 237 239 238 239 243 244 241 237 235 232 227 220
116 83 244 244 234 281 355 44 49 56 59 41 34 82 116 122 118 114 113 112 120 123 106 94 88 82 84 141 207 204 212 220 227 235 241 242 250 262 264 261 256 254 253 251 246 242 241 236 229
117 159 229 230 211 192 47 55 46 66 55 47 60 79 106 117 118 120 123 124 124 125 114 89 90 90 77 270 345 342 329 318 287 276 268 271 257 253 258 266 265 265 265 264 258 253 248 241 227
165 201 237 253 227 180 110 66 37 87 57 46 92 111 112 109 107 111 113 113 110 105 96 80 83 81 81 23 17 8 23 5 330 305 282 274 272 266 268 271 281 284 283 281 276 267 250 232 219
181 242 241 274 177 118 105 100 67 58 79 81 88 103 106 105 104 107 104 99 96 88 80 74 75 75 70 60 35 34 25 17 338 313 303 277 272 269 270 269 274 273 274 277 274 265 255 240 227
203 267 33 47 72 85 89 85 93 77 84 93 94 93 99 101 94 87 93 94 94 92 84 76 77 80 78 66 41 41 30 11 342 337 338 324 285 286 291 294 299 294 287 280 276 271 263 250 238
166 94 78 55 75 74 93 83 86 98 103 103 100 99 103 104 105 99 95 98 99 97 94 87 76 76 79 77 69 49 36 16 10 1 353 355 341 315 309 306 308 303 296 286 277 274 268 259 248
117 93 63 43 75 117 92 61 74 134 119 110 109 112 111 108 111 115 121 120 119 117 115 114 110 98 94 90 81 71 52 45 30 4 355 358 354 337 326 321 316 307 302 297 289 284 270 262 252
73 73 69 4 78 131 103 130 184 147 133 127 129 131 129 122 129 136 137 137 140 140 142 145 128 122 113 108 93 73 51 47 30 11 4 0 354 348 341 324 310 313 318 314 301 287 285 271 261
40 99 163 242 34 105 120 160 188 165 149 146 145 144 140 140 148 160 159 163 163 164 161 152 141 134 118 100 78 62 52 42 21 13 13 3 359 1 356 314 306 318 322 319 313 302 274 278 275
201 169 180 201 24 82 106 138 151 176 180 177 164 158 155 163 178 182 179 180 180 181 174 159 149 133 109 82 59 39 32 19 12 5 359 360 357 2 359 329 323 325 319 317 314 298 283 266 274
163 155 158 147 84 85 118 141 173 188 207 197 192 180 179 184 187 186 191 193 191 198 195 189 180 180 141 87 66 37 354 339 343 345 353 353 353 357 357 342 328 324 304 295 303 294 297 288 282
140 134 138 88 65 89 116 138 175 193 215 209 202 204 200 190 191 201 206 206 205 207 209 207 205 201 189 157 148 163 257 295 294 313 332 346 350 348 353 345 326 316 302 309 313 295 302 295 306
149 170 167 144 100 56 73 15 198 225 244 235 216 209 207 203 205 210 212 214 214 216 211 208 209 209 204 169 106 55 17 347 337 329 327 332 334 337 341 337 327 315 288 285 292 286 271 288 302
224 203 132 120 104 36 40 328 284 249 267 231 222 217 221 222 216 217 218 221 221 222 208 204 205 209 209 181 172 188 227 268 267 279 293 307 315 323 328 329 329 319 302 288 287 299 262 254 291
97 74 86 92 96 62 33 34 295 339 277 253 237 230 229 228 223 224 224 223 223 212 199 199 199 212 212 198 195 208 240 248 273 286 294 300 308 313 317 319 328 329 312 297 290 297 274 239 241
120 78 61 51 60 31 1 44 288 250 230 249 241 230 229 230 229 228 226 210 213 194 183 182 190 215 219 218 219 220 242 260 277 286 290 294 298 300 305 308 311 310 305 301 294 283 273 248 244
85 85 40 7 14 278 309 278 257 253 230 226 238 241 235 232 220 214 206 197 198 189 188 184 189 222 234 236 242 238 241 247 252 264 268 277 286 288 292 300 290 288 287 287 281 281 284 264 249
156 131 152 194 217 274 321 258 259 259 258 240 239 242 239 231 216 213 204 195 193 194 189 186 199 229 243 244 251 252 248 241 247 252 252 257 260 268 277 281 277 276 279 283 279 275 276 271 265
137 141 142 120 111 32 290 288 299 262 262 248 238 233 238 232 211 200 190 187 191 193 196 199 208 233 247 247 253 260 256 247 251 259 257 258 260 270 273 275 277 277 275 274 273 266 272 273 267
121 137 102 106 128 259 299 278 252 252 242 240 232 230 233 210 196 192 191 196 202 208 214 216 218 234 248 253 254 259 258 256 257 264 267 266 269 271 279 280 278 276 273 267 259 260 263 262 262
119 95 101 102 141 149 244 268 227 219 220 220 227 225 211 202 203 204 206 211 215 226 231 237 243 250 258 259 259 266 267 268 269 267 268 271 275 276 276 278 279 278 275 269 257 255 257 254 258
160 154 147 143 186 165 179 265 257 230 232 220 225 222 209 206 208 211 216 222 235 245 251 253 256 256 258 260 264 266 271 276 275 272 273 275 275 276 276 278 278 277 276 270 264 266 265 253 254